SCP
0 0 0 0 0 0 0 0 0 0 0 0 0 0 1 1 1 1 1 1 1 1 0 1 1 1 2 2 2 2 2 2 2 2 3 3 3 2 2 1 1 0 0
0 0 0 0 0 0 0 0 0 0 0 0 0 0 0 1 1 1 1 1 1 1 1 0 1 1 2 2 2 2 2 2 2 2 3 3 3 2 2 1 1 0 0
0 0 0 0 0 0 0 0 0 0 0 0 0 0 0 0 0 1 1 1 1 1 1 1 1 1 1 2 2 2 2 2 2 2 3 3 3 2 2 1 1 1 0
0 0 0 0 0 0 0 0 0 0 0 0 0 0 0 0 0 0 0 1 1 1 1 1 1 1 1 1 1 2 2 2 2 2 3 3 3 2 1 1 1 1 0
0 0 0 0 0 0 0 0 0 0 0 0 0 1 1 0 0 0 0 1 1 1 1 1 1 1 1 1 1 1 2 2 2 2 2 3 3 2 1 1 1 1 0
0 0 0 0 0 0 0 0 0 0 0 0 1 1 0 0 0 0 0 1 1 1 1 1 1 1 1 0 0 1 1 1 2 1 2 2 3 2 2 1 1 1 1
0 0 0 0 0 0 0 0 0 0 0 0 0 0 0 0 0 0 0 0 1 1 1 1 1 1 0 0 0 0 1 1 1 1 1 2 2 2 2 1 1 1 1
0 0 0 0 0 0 0 0 0 0 0 0 0 0 0 0 0 0 0 0 0 1 1 1 1 1 0 0 0 0 0 0 0 1 1 1 2 2 2 1 1 1 1
0 0 0 0 0 0 0 0 0 0 0 0 0 0 0 0 0 0 0 0 0 0 1 1 1 1 0 0 0 0 0 0 0 0 1 1 1 1 1 1 1 1 1
0 0 0 0 0 0 0 0 0 1 1 1 1 0 0 0 0 0 0 0 0 0 1 1 1 0 0 0 0 0 0 0 0 0 0 0 1 1 1 1 1 0 0
0 0 0 0 0 0 0 0 1 1 1 1 1 1 1 0 0 0 0 0 0 0 1 1 0 0 0 0 0 0 0 0 0 0 0 0 1 1 1 1 1 1 0
0 0 0 0 0 0 0 0 1 1 1 1 1 1 1 1 0 0 0 0 0 0 0 0 0 0 0 0 0 0 0 0 0 0 0 1 1 1 1 1 1 1 1
0 0 0 0 0 0 0 0 1 1 1 1 1 1 1 0 0 0 0 0 0 0 0 0 0 0 0 0 0 0 0 0 0 0 1 1 1 1 1 1 1 1 1
0 0 0 0 0 0 0 0 1 1 1 0 1 0 0 0 0 0 0 0 0 0 0 0 0 0 0 0 0 0 0 0 0 0 0 1 1 1 1 1 1 1 1
0 0 0 0 0 0 0 0 0 0 0 0 0 0 0 0 0 0 0 0 0 0 0 0 0 0 0 0 0 0 0 0 0 0 1 1 1 1 1 1 1 0 0
0 0 0 0 0 0 0 0 0 0 0 0 0 0 0 0 0 0 0 0 0 0 0 0 0 0 0 0 0 0 0 0 0 0 1 1 1 1 1 1 0 0 0
0 0 0 0 0 0 0 0 0 0 0 0 0 0 0 0 0 0 0 0 0 0 0 0 0 0 0 0 0 0 0 0 0 0 1 1 1 1 1 0 0 0 0
0 0 0 0 0 0 0 0 0 0 0 0 0 0 0 0 0 0 0 0 0 0 0 0 0 0 0 0 0 0 0 0 0 0 1 1 1 0 0 0 0 0 0
0 0 0 0 0 0 0 0 0 0 0 0 0 0 0 0 0 0 0 0 0 0 0 0 0 0 0 0 0 0 0 0 0 1 1 1 1 0 0 0 0 0 0
0 0 0 0 0 0 0 0 0 0 0 0 0 0 0 0 0 0 0 0 0 0 0 0 0 0 0 0 0 0 0 0 0 1 1 1 1 1 0 0 0 0 0
0 0 0 0 0 0 0 0 0 0 0 0 0 0 0 0 0 0 0 0 0 0 0 0 0 0 0 0 0 0 0 0 0 1 1 1 1 1 1 0 0 0 0
0 0 0 0 0 0 0 0 0 0 0 0 0 0 0 0 0 0 0 0 0 0 0 0 0 0 0 0 0 0 0 0 0 0 0 1 1 1 1 0 0 0 0
0 0 0 0 0 0 0 0 0 0 0 0 0 0 0 0 0 0 0 0 0 0 0 0 0 0 0 0 0 0 0 0 0 0 0 0 0 0 0 0 0 0 0
0 0 0 0 0 0 0 0 0 0 0 0 0 0 0 0 0 0 0 0 0 0 0 0 0 0 0 0 0 0 0 0 0 0 0 0 0 0 0 0 0 0 0
0 0 0 0 0 0 0 0 0 0 0 0 0 0 0 0 0 0 0 0 0 0 0 0 0 0 0 0 0 0 0 0 0 0 0 0 0 0 0 0 0 0 0
0 0 0 0 0 0 0 0 0 0 0 0 0 0 0 0 0 0 0 0 0 0 0 0 0 0 0 0 0 0 0 0 0 0 0 0 0 0 0 0 0 0 0
Wind_Speed
6 6 6 7 7 7 7 8 7 7 8 8 8 9 9 9 8 7 7 7 7 6 6 6 6 4 4 5 5 4 3 3 3 1 3 7 8 8 7 7 7 5 5
6 6 7 7 7 8 9 8 7 8 8 9 9 9 10 10 9 9 9 10 8 8 8 7 6 5 6 4 4 5 5 3 2 2 4 5 7 9 8 7 6 7 6
8 7 8 9 9 8 9 9 8 8 9 9 9 9 10 10 10 10 9 9 9 9 8 8 7 7 6 5 5 5 5 4 3 3 4 5 5 7 8 8 8 6 7
10 9 9 9 9 9 9 9 9 9 9 10 10 10 10 10 11 11 11 10 9 9 9 8 8 8 7 7 6 6 5 5 4 3 4 6 6 8 8 8 7 6 5
10 11 10 10 9 10 9 10 10 10 12 10 10 10 10 10 11 11 10 12 10 10 9 9 9 10 11 8 6 5 6 5 5 4 5 5 6 8 8 7 8 7 6
10 11 10 10 11 10 10 11 10 10 10 10 11 12 12 12 13 11 8 8 7 8 9 9 9 9 11 12 11 9 7 7 6 6 5 7 8 8 7 9 9 9 5
10 11 11 11 11 11 13 12 12 11 11 11 11 12 12 12 14 14 13 9 9 8 9 8 10 11 11 10 11 12 10 8 7 5 6 6 7 9 9 11 10 9 6
11 11 11 11 13 12 12 13 12 10 10 10 11 12 11 12 14 13 13 11 10 10 9 9 9 8 8 7 9 10 9 9 8 6 5 5 4 5 7 9 10 8 8
12 11 12 13 14 13 13 13 11 10 10 10 11 11 11 11 12 12 11 8 8 9 9 9 9 9 9 10 8 8 8 7 9 9 7 5 5 6 5 7 11 11 9
12 13 13 13 13 14 13 12 11 9 10 10 10 9 10 10 10 11 11 7 7 7 6 7 9 9 10 10 8 7 8 7 7 8 7 6 6 6 8 9 11 12 10
12 13 14 13 13 13 11 9 9 9 9 10 10 9 9 9 8 10 11 7 6 5 5 5 6 10 10 12 9 6 6 6 6 7 7 6 6 6 7 7 7 10 11
13 14 14 14 13 11 10 10 9 9 9 9 8 7 5 5 5 7 9 9 5 3 3 3 3 8 11 11 8 6 6 6 5 5 6 6 7 7 7 8 7 6 6
14 14 14 14 12 10 10 10 9 7 6 6 6 6 5 4 2 5 7 8 7 3 1 0 2 5 7 7 8 8 7 4 4 5 6 6 6 7 7 7 6 5 6
14 14 13 13 12 10 7 7 7 6 6 6 6 5 5 3 2 1 3 5 6 5 3 3 5 6 5 5 7 6 6 5 5 5 5 5 5 6 7 7 6 7 6
13 13 13 12 11 9 8 6 7 4 3 4 6 6 5 4 3 5 3 1 1 2 3 4 4 5 5 6 6 6 6 6 5 4 4 5 6 6 6 7 7 7 6
12 12 10 10 9 8 8 7 3 3 2 3 3 4 4 3 4 4 2 2 2 1 1 3 4 5 6 6 6 6 7 6 6 5 5 5 7 7 7 7 8 8 8
12 12 10 10 9 8 7 7 5 2 4 4 4 4 4 5 4 2 1 1 0 1 3 4 5 5 5 5 5 6 6 6 5 6 6 6 6 7 8 9 9 9 8
12 11 10 9 9 8 7 6 5 5 3 2 4 5 5 4 3 2 1 1 3 5 5 5 5 5 5 5 5 5 5 5 5 5 5 6 7 8 9 10 10 10 9
11 9 9 10 9 7 7 5 4 5 4 3 1 3 4 4 4 3 3 4 5 4 5 5 5 5 5 4 4 5 4 4 5 5 5 7 7 8 9 10 10 13 11
9 12 12 10 9 7 6 5 4 4 4 4 3 1 1 3 3 3 5 5 5 4 4 4 4 4 4 4 4 4 4 4 5 5 5 6 7 8 9 11 11 12 10
9 10 12 10 7 7 6 5 4 4 4 3 3 3 3 4 4 3 3 4 4 4 3 3 3 3 3 3 4 5 6 5 5 5 5 6 8 8 8 9 11 11 10
8 9 8 8 7 7 7 6 4 3 4 4 3 1 2 4 3 3 3 3 3 3 3 3 3 2 2 3 3 4 5 5 6 6 6 7 8 8 9 10 10 10 10
8 9 9 8 7 7 6 5 4 4 3 3 3 3 3 3 3 3 3 3 2 2 1 1 1 1 1 1 1 3 4 4 5 7 7 7 8 8 9 11 13 12 11
8 8 8 8 8 7 6 5 5 5 4 3 3 3 2 2 3 3 2 2 2 2 2 1 1 1 1 0 1 1 1 2 4 6 9 9 9 9 9 10 12 13 12
7 7 7 7 7 7 6 5 5 5 4 3 3 3 3 2 2 2 1 1 1 1 2 1 1 1 1 1 1 3 4 4 4 5 7 7 10 10 11 11 11 12 11
7 7 7 7 7 7 7 6 5 5 4 3 3 3 3 3 3 2 1 0 1 1 1 1 1 2 3 3 6 7 7 7 7 6 6 7 9 9 11 9 12 11 12
Wind_Direction
321 319 314 309 310 305 297 295 298 300 300 295 291 288 284 278 271 254 243 246 241 236 233 230 230 233 253 275 278 271 267 274 258 224 152 138 131 128 128 123 134 115 92
322 319 313 311 305 301 301 302 300 297 295 294 290 287 283 280 272 263 250 245 238 235 231 229 227 225 224 240 261 269 266 259 258 228 144 141 140 134 136 133 122 106 96
321 317 314 311 307 305 303 301 298 295 292 292 289 286 283 281 278 274 263 249 240 235 231 228 224 220 220 223 232 243 251 250 244 225 172 153 144 139 131 117 109 108 103
321 317 311 308 307 304 302 299 297 295 293 288 285 283 281 279 276 274 271 260 245 237 232 230 226 220 217 216 224 229 231 236 234 224 195 161 153 149 138 133 129 125 120
318 313 310 307 305 301 299 298 296 293 292 291 290 286 281 277 269 262 261 262 251 240 234 228 229 222 219 212 212 210 215 218 220 212 202 173 159 160 159 149 139 127 114
313 310 308 306 304 302 300 296 294 293 292 290 287 285 281 277 281 286 282 277 271 256 242 232 233 231 223 209 204 196 200 211 211 207 201 188 176 170 161 152 146 144 139
313 310 310 309 307 304 304 303 298 296 293 288 284 281 277 272 271 269 264 262 262 259 249 236 236 233 212 205 201 200 203 211 208 207 203 198 179 172 163 159 160 158 140
316 315 315 312 308 305 303 299 295 293 291 287 283 280 276 272 266 257 251 253 255 250 241 231 224 242 235 210 201 203 205 205 204 203 205 203 176 159 166 160 153 130 118
319 319 316 313 308 304 302 299 298 295 292 287 284 280 276 271 262 250 238 250 248 247 241 231 219 222 228 216 205 204 204 202 203 199 190 184 178 161 165 153 148 145 143
323 319 313 308 304 302 298 297 297 295 292 291 287 284 280 275 258 237 225 243 245 243 237 239 231 223 213 205 207 206 206 200 187 186 184 182 185 178 179 172 162 157 149
323 316 311 308 304 298 296 299 299 296 295 293 290 285 280 274 258 234 222 233 240 237 233 231 225 204 199 201 207 208 212 195 183 181 183 185 185 183 180 177 175 167 161
321 316 313 310 308 306 306 303 301 298 298 298 297 295 290 278 256 230 214 221 240 248 236 241 231 200 196 197 202 195 182 182 180 181 185 186 190 188 181 175 179 173 163
320 318 315 311 306 303 303 305 305 303 304 308 310 311 311 304 249 210 209 212 218 236 277 1 190 189 188 198 207 185 176 192 197 190 195 194 190 184 169 161 160 145 125
320 318 314 311 308 310 308 305 307 311 319 324 324 326 325 324 342 276 203 196 199 208 206 186 180 187 205 212 188 193 206 213 207 202 191 189 177 175 169 158 155 145 128
319 316 315 313 311 311 309 306 307 326 335 313 322 329 331 335 3 359 345 317 209 191 185 181 185 184 199 209 201 195 202 205 213 208 192 184 173 176 167 156 156 150 143
318 317 315 313 314 313 315 316 309 281 246 253 275 299 313 339 345 1 33 33 17 65 199 205 208 210 211 210 207 203 202 205 203 196 191 182 176 173 166 159 161 159 153
316 313 312 312 314 316 319 318 318 271 228 250 267 279 286 314 329 344 9 19 281 169 219 224 222 222 223 223 217 213 206 205 200 193 189 182 174 169 167 165 166 161 158
316 312 313 314 315 315 316 317 324 333 326 274 220 244 263 272 276 278 280 258 220 212 230 230 225 228 233 227 219 219 212 200 197 195 188 175 171 169 170 170 169 165 161
316 314 318 316 311 314 316 322 333 337 332 327 281 196 226 234 234 237 223 246 250 231 227 230 230 228 228 222 214 215 210 200 193 188 184 174 172 170 171 168 166 163 162
315 312 313 311 312 316 317 327 337 339 339 339 336 346 204 232 238 205 214 238 253 256 250 242 241 235 224 217 209 208 200 196 191 191 184 176 172 172 171 167 165 168 171
316 315 315 314 322 322 324 334 340 338 337 338 350 11 340 306 300 284 243 239 253 258 254 252 244 236 226 212 207 205 204 195 189 190 183 176 172 171 168 166 164 167 169
312 314 319 322 323 325 329 328 328 328 331 338 334 322 296 292 302 303 298 283 272 260 258 251 245 235 233 225 212 207 207 197 189 186 180 175 167 167 166 164 163 167 167
314 318 322 325 326 327 325 325 331 336 343 350 344 340 331 328 330 324 314 314 307 304 311 311 278 259 249 233 218 218 217 203 189 177 173 171 166 166 165 164 165 165 167
314 320 327 329 329 333 336 334 338 342 349 354 355 346 339 338 330 332 336 345 344 345 351 353 343 349 17 265 244 232 211 180 171 170 170 166 163 161 161 163 165 168 169
322 329 331 330 332 333 332 334 339 338 337 350 358 342 348 353 346 343 344 355 359 35 34 14 4 10 48 85 84 85 84 99 125 148 156 159 158 158 157 158 159 161 163
333 337 335 333 334 331 329 332 338 338 338 356 8 349 348 354 345 0 3 47 87 81 56 33 47 58 60 63 77 83 84 87 92 110 135 146 149 150 151 150 153 157 159